This is the latest recevied weather packets stored in our database for station/object DB0TGO-14. If no packets are shown the sender has not sent any weather packets the latest 1 day(s).
| Time | Temp. | Humidity | Pressure | Rain* | Wind** | Luminosity | Snow |
|---|---|---|---|---|---|---|---|
| 1777996998 | 19.44° C | 70% | 1008.5 hPa | 0 mm | 1.34 m/s, 0° | - | - |
| 1777996890 | 19.44° C | 70% | 1008.5 hPa | 0 mm | 1.34 m/s, 22° | - | - |
| 1777996772 | 19.44° C | 69% | 1008.5 hPa | 0 mm | 1.34 m/s, 22° | - | - |
| 1777996707 | 19.44° C | 69% | 1008.4 hPa | 0 mm | 1.34 m/s, 292° | - | - |
| 1777996670 | 19.44° C | 69% | 1008.5 hPa | 0 mm | 1.34 m/s, 292° | - | - |
| 1777996570 | 19.44° C | 69% | 1008.5 hPa | 0 mm | 1.34 m/s, 22° | - | - |
| 1777996458 | 19.44° C | 69% | 1008.5 hPa | 0 mm | 1.34 m/s, 22° | - | - |
| 1777996345 | 19.44° C | 69% | 1008.7 hPa | 0 mm | 1.34 m/s, 0° | - | - |
| 1777996245 | 19.44° C | 69% | 1008.7 hPa | 0 mm | 1.34 m/s, 45° | - | - |
| 1777996141 | 19.44° C | 70% | 1008.7 hPa | 0 mm | 1.34 m/s, 68° | - | - |
| 1777996037 | 19.44° C | 70% | 1008.7 hPa | 0 mm | 1.34 m/s, 248° | - | - |
| 1777995920 | 19.44° C | 69% | 1008.7 hPa | 0 mm | 1.34 m/s, 22° | - | - |
| 1777995810 | 19.44° C | 70% | 1008.7 hPa | 0 mm | 1.34 m/s, 292° | - | - |
| 1777995690 | 20° C | 70% | 1008.7 hPa | 0 mm | 1.34 m/s, 248° | - | - |
| 1777995617 | 20° C | 68% | 1008.7 hPa | 0 mm | 1.34 m/s, 22° | - | - |
| 1777995570 | 20° C | 69% | 1008.7 hPa | 0 mm | 1.34 m/s, 45° | - | - |
| 1777995454 | 19.44° C | 69% | 1008.7 hPa | 0 mm | 1.34 m/s, 270° | - | - |
| 1777995355 | 19.44° C | 69% | 1008.8 hPa | 0 mm | 1.34 m/s, 22° | - | - |
| 1777995255 | 19.44° C | 69% | 1008.7 hPa | 0 mm | 1.79 m/s, 270° | - | - |
| 1777995151 | 20° C | 70% | 1008.7 hPa | 0 mm | 1.79 m/s, 22° | - | - |
| 1777995035 | 20° C | 70% | 1008.7 hPa | 0 mm | 1.34 m/s, 22° | - | - |
| 1777994920 | 20° C | 69% | 1008.8 hPa | 0 mm | 1.34 m/s, 22° | - | - |
| 1777994818 | 20° C | 70% | 1008.8 hPa | 0 mm | 1.34 m/s, 45° | - | - |
| 1777994700 | 20° C | 70% | 1008.7 hPa | 0 mm | 1.34 m/s, 22° | - | - |
| 1777994595 | 20° C | 70% | 1008.7 hPa | 0 mm | 1.34 m/s, 292° | - | - |
* Rain latest hour (hover to see other rain measurements)
** Current wind speed in m/s (hover to see current wind gust speed)